Hagerstown, MD

6:44 AM EST on November 13, 2019 (GMT -0500)
Hagerstown Regional-Henson

Weather History for KHGR - September, 2019

Change the Weather History Date:

Thursday, September 19, 2019

  Actual Average Record
Temperature  
Mean Temperature 64 °F 65 °F  
Max Temperature 72 °F 74 °F 87 °F (2015)
Min Temperature 56 °F 55 °F 47 °F (2007)
Degree Days  
Heating Degree Days 1 3  
Month to date heating degree days 1 21  
Since 1 July heating degree days 1 26  
Cooling Degree Days 0 2  
Month to date cooling degree days 154 76  
Year to date cooling degree days 1363 944  
Growing Degree Days 14 (Base 50)    
Moisture  
Dew Point 47 °F    
Average Humidity 59    
Maximum Humidity 83    
Minimum Humidity 35    
Precipitation  
Precipitation 0.00 in 0.14 in 0.69 in (2002)
Month to date precipitation 0.39 2.14  
Year to date precipitation 28.76 28.77  
Sea Level Pressure  
Sea Level Pressure 30.33 in    
Wind  
Wind Speed 5 mph (SE)    
Max Wind Speed 13 mph    
Max Gust Speed 16 mph    
Visibility 10 miles    
Events      
T = Trace of Precipitation, MM = Missing Value Source: NWS Daily Summary

Daily Weather History Graph

Daily Weather History Graph

Search for Another Location

Airport or City:

Astronomy

Sep. 19, 2019 Rise Set
Actual Time 6:55 AM EDT 7:13 PM EDT
Civil Twilight 6:28 AM EDT 7:40 PM EDT
Nautical Twilight 5:56 AM EDT 8:11 PM EDT
Astronomical Twilight 5:24 AM EDT 8:44 PM EDT
Moon 10:22 PM EDT (9/19) 11:56 AM EDT (9/19)
Length of Visible Light 13h 11m
Length of Day
12h 17m
Waning Gibbous, 74% of the Moon is Illuminated
Sep 19
Waning Gibbous
Sep 21
Last Quarter
Sep 28
New
Oct 5
First Quarter
Oct 13
Full

Hourly Weather History & Observations

Time (EDT) Temp. Dew Point Humidity Pressure Visibility Wind Dir Wind Speed Gust Speed Precip Events Conditions
12:53 AM 60.1 °F 46.0 °F 60% 30.29 in 10.0 mi East 6.9 mph - N/A   Clear
1:53 AM 57.9 °F 48.0 °F 70% 30.31 in 10.0 mi ENE 3.5 mph - N/A   Clear
2:53 AM 57.9 °F 50.0 °F 75% 30.31 in 10.0 mi ENE 3.5 mph - N/A   Clear
3:22 AM 57.0 °F 50.0 °F 77% 30.30 in 10.0 mi Calm Calm - N/A   Mostly Cloudy
3:53 AM 57.9 °F 51.1 °F 78% 30.32 in 10.0 mi Calm Calm - N/A   Overcast
4:53 AM 57.9 °F 52.0 °F 81% 30.32 in 10.0 mi ESE 3.5 mph - N/A   Mostly Cloudy
5:09 AM 57.0 °F 51.1 °F 81% 30.30 in 10.0 mi ESE 3.5 mph - N/A   Scattered Clouds
5:53 AM 57.0 °F 51.1 °F 81% 30.34 in 10.0 mi ESE 4.6 mph - N/A   Scattered Clouds
6:02 AM 57.0 °F 51.1 °F 81% 30.31 in 10.0 mi East 4.6 mph - N/A   Mostly Cloudy
6:40 AM 57.0 °F 50.0 °F 77% 30.32 in 10.0 mi East 4.6 mph - N/A   Mostly Cloudy
6:53 AM 55.9 °F 50.0 °F 80% 30.35 in 10.0 mi East 4.6 mph - N/A   Mostly Cloudy
7:53 AM 57.0 °F 51.1 °F 81% 30.36 in 10.0 mi East 5.8 mph - N/A   Mostly Cloudy
8:53 AM 61.0 °F 50.0 °F 67% 30.37 in 10.0 mi SE 5.8 mph - N/A   Mostly Cloudy
9:53 AM 62.1 °F 46.9 °F 58% 30.38 in 10.0 mi SE 8.1 mph - N/A   Mostly Cloudy
11:53 AM 64.9 °F 46.9 °F 52% 30.38 in 10.0 mi Variable 3.5 mph - N/A   Scattered Clouds
12:53 PM 66.9 °F 46.9 °F 49% 30.36 in 10.0 mi SSW 5.8 mph - N/A   Mostly Cloudy
1:53 PM 69.1 °F 46.0 °F 44% 30.34 in 10.0 mi Calm Calm - N/A   Partly Cloudy
3:53 PM 72.0 °F 44.1 °F 37% 30.31 in 10.0 mi SW 4.6 mph - N/A   Clear
4:53 PM 72.0 °F 44.1 °F 37% 30.31 in 10.0 mi Variable 4.6 mph - N/A   Clear
5:53 PM 71.1 °F 43.0 °F 36% 30.31 in 10.0 mi South 5.8 mph - N/A   Clear
6:53 PM 69.1 °F 44.1 °F 40% 30.31 in 10.0 mi SSE 6.9 mph - N/A   Clear
7:53 PM 66.0 °F 45.0 °F 47% 30.30 in 10.0 mi SSE 5.8 mph - N/A   Clear
8:53 PM 64.0 °F 46.0 °F 52% 30.31 in 10.0 mi SE 5.8 mph - N/A   Clear
9:53 PM 61.0 °F 45.0 °F 56% 30.32 in 10.0 mi ESE 5.8 mph - N/A   Clear
10:53 PM 59.0 °F 43.0 °F 55% 30.32 in 10.0 mi SSE 6.9 mph - N/A   Clear
11:53 PM 59.0 °F 41.0 °F 51% 30.32 in 10.0 mi Calm Calm - N/A   Clear